Regional Weather Roundup
Issued by NWS

Home | Current Version | Previous Version | Graphics & Text | Print | Product List | Glossary On
Versions: 1 2 3 4 5 6 7 8 9 10 11 12 13 14 15 16 17 18 19 20 21 22 23 24 25 26 27 28 29 30 31 32 33 34 35 36 37 38 39 40 41 42 43 44 45 46 47 48 49 50
000
ASUS43 KMKX 301421
RWRWI

WISCONSIN REGIONAL WEATHER ROUNDUP
NATIONAL WEATHER SERVICE MILWAUKEE/SULLIVAN WI
900 AM CDT SUN APR 30 2017

NOTE: "FAIR" INDICATES FEW OR NO CLOUDS BELOW 12,000 FEET WITH NO
SIGNIFICANT WEATHER AND/OR OBSTRUCTIONS TO VISIBILITY.

WIZ001-002-006>008-014>016-023>028-301500-
NORTHWEST WISCONSIN

CITY           SKY/WX    TMP DP  RH WIND       PRES   REMARKS
SUPERIOR ARPT  CLOUDY    39  30  70 NE13G20   30.12F WCI  32
ASHLAND        CLOUDY    40  29  64 NE10      30.12F WCI  33
HAYWARD        CLOUDY    41  24  51 NE7       30.06F
SIREN          CLOUDY    41  23  48 E8        30.08R
CUMBERLAND     CLOUDY    41  25  52 NE7       30.05R
RICE LAKE      CLOUDY    44  24  46 NE10      30.06R
CHETEK         NOT AVBL
LADYSMITH      CLOUDY    43  26  51 NE13      30.04F
EAU CLAIRE     CLOUDY    43  27  53 E13G23    30.01R
MENOMONIE      CLOUDY    43  26  52 NE8       30.02R
NEW RICHMOND   CLOUDY    42  25  50 NE10      30.03R
OSCEOLA        CLOUDY    44  26  49 E8        30.08R
$$

WIZ003>005-009-010-017-018-301500-
NORTH CENTRAL WISCONSIN

CITY           SKY/WX    TMP DP  RH WIND       PRES   REMARKS
MANITOWISH WTR CLOUDY    44  27  50 E10G16    30.05F
ARBOR VITAE    MOSUNNY   44  28  54 E12G17    30.05F
WOODRUFF       MOSUNNY   44  28  54 E12G17    30.05F
RHINELANDER    CLOUDY    43  30  60 E14       30.03F
EAGLE RIVER    MOSUNNY   42  26  52 E17G26    30.04F
LAND O LAKES   PTSUNNY   44  27  50 E14G21    30.09F
PHILLIPS       CLOUDY    43  27  53 E14G21    30.03F
TOMAHAWK       CLOUDY    40  28  62 NE8       30.05S WCI  35
MEDFORD        CLOUDY    40  29  64 E20       30.00F WCI  31
MERRILL        CLOUDY    41  32  68 E16G24    30.03F
$$

WIZ029-030-035-036-043>047-301500-
CENTRAL WISCONSIN

CITY           SKY/WX    TMP DP  RH WIND       PRES   REMARKS
WAUSAU         CLOUDY    42  32  67 E20G26    30.01S
MOSINEE        CLOUDY    39  32  75 E20G25    30.01F WCI  30
MARSHFIELD     CLOUDY    41  31  67 E14       29.99S
STEVENS POINT  CLOUDY    38  33  80 E17G24    30.01R WCI  29
WAUPACA        CLOUDY    42  39  90 NE13G20   30.00F FOG
WAUTOMA        CLOUDY    40  38  93 NE18G29   29.98S WCI  31
WISC RAPIDS    CLOUDY    41  35  79 E13G26    30.00R
CAMP DOUGLAS   CLOUDY    41  34  75 E14G21    29.96R
$$

WIZ011>013-019>022-031-037>040-048>050-301500-
NORTHEAST WISCONSIN

CITY           SKY/WX    TMP DP  RH WIND       PRES   REMARKS
ANTIGO         CLOUDY    40  32  74 E21G30    30.03F WCI  30
SHAWANO        CLOUDY    42  37  82 E17G25    30.06S
OCONTO         NOT AVBL
STURGEON BAY   LGT RAIN  38  36  92 NE14G23   30.06F FOG     WCI  30
GREEN BAY      CLOUDY    41  40  96 E14G25    30.04S FOG
MANITOWOC      CLOUDY    39  37  92 NE12G22   30.02F WCI  32
APPLETON       CLOUDY    39  37  93 NE20G30   29.99F FOG     WCI  30
CLINTONVILLE   CLOUDY    39  36  87 E15G25    30.04S FOG     WCI  31
OSHKOSH        CLOUDY    41  38  89 NE18G29   29.97F
$$

WIZ032>034-041-042-053>061-301500-
SOUTHWEST WISCONSIN

CITY           SKY/WX    TMP DP  RH WIND       PRES   REMARKS
LA CROSSE      CLOUDY    44  33  65 E13G21    29.96R
SPARTA         CLOUDY    42  34  74 E18G30    29.95F
VIROQUA        CLOUDY    39  36  87 E21       29.91F WCI  29
BOSCOBEL       CLOUDY    42  38  85 E9        29.91F
PRAIRIE DU CHI CLOUDY    41  36  81 NE12G18   29.90S
PLATTEVILLE    CLOUDY    41  41 100 NE18G28   29.85F
$$

WIZ056-057-062-063-064-067-068-301500-
SOUTH CENTRAL WISCONSIN

CITY           SKY/WX    TMP DP  RH WIND       PRES   REMARKS
REEDSBURG      CLOUDY    39  39 100 NE9G20    29.94R FOG     WCI  32
BARABOO/DELLS  CLOUDY    39  37  94 E14G23    29.93S FOG     WCI  31
LONE ROCK      CLOUDY    41  38  89 E15       29.91F FOG
MINERAL POINT  CLOUDY    41  41 100 NE18G24   29.86F FOG
MADISON        DRIZZLE   40  39  97 NE16G24   29.89S FOG     WCI  31
MIDDLETON      CLOUDY    41  41 100 E15G22    29.89F
WATERTOWN      CLOUDY    41  41 100 NE13G24   29.89S
MONROE         CLOUDY    39  37  93 NE15G25   29.85F WCI  31
JANESVILLE     CLOUDY    43  43 100 E13G30    29.88
$$

WIZ051-052-058>065-066-070>072-301500-
SOUTHEAST WISCONSIN

CITY           SKY/WX    TMP DP  RH WIND       PRES   REMARKS
MILWAUKEE      DRIZZLE   42  41  96 E21G28    29.88F FOG
WAUKESHA       LGT RAIN  37  37 100 NE17G26   29.88F FOG     WCI  28
MILWAUKEE/TIMM LGT RAIN  39  37  93 NE14G21   29.91F WCI  31
RACINE         CLOUDY    41  39  93 NE16G25   29.88F
KENOSHA        CLOUDY    41  40  96 E18       29.85F
FOND DU LAC    CLOUDY    41  37  86 NE15      29.97F FOG
SHEBOYGAN      LGT RAIN  39  38  96 NE21G28   29.97F FOG     WCI  29
WEST BEND      RAIN      39  39 100 E20G26    29.91F WCI  30
JUNEAU         CLOUDY    39  38  94 NE14G24   29.93S FOG     WCI  31
$$

LSZ147-162-301500-
LAKE SUPERIOR

STATION/POSITION TIME  TEMP    WIND        PRES    WAVE
                       AIR SEA DIR/SP/G            HT/PER
                 (UTC) (F)     (DEG/KT/KT) (MB)    (FT/S)
DEVILS ISLAND    1300   38      50/ 20/ 22 1022.3F
PORT WING        1240   38      40/ 12/ 15 1021.7
SAXON HARBOR     1340   38      40/  9/ 12 1019.6F
$$

LMZ867-665-643>646-301500-
LAKE MICHIGAN

STATION/POSITION TIME  TEMP    WIND        PRES    WAVE
                       AIR SEA DIR/SP/G            HT/PER
                 (UTC) (F)     (DEG/KT/KT) (MB)    (FT/S)
CHAMBERS ISLAND  1340   39      50/ 17/ 25 1018.6F
N MID LAKE BUOY  1250   38 37   80/ 21/ 27 1021.9F   3/ 4
NORTHPORT PIER   1340   39      70/ 20/ 25 1019.6F
SISTER BAY       1206   41     110/ 12/ 22   N/A
KEWAUNEE LAKESHO 1400   38      50/ 14/ 20 1016.7
SHEBOYGAN LAKESH 1300   40      40/ 20/ 22 1016.4F
PORT WASHINGTON  1340   40      50/ 16/ 23 1014.9F
MILWAUKEE LAKESH 1400   40      40/ 17/ 20   N/A
S MID LAKE BUOY  1250   41 40   60/ 16/ 19 1013.9F   4/ 5
KENOSHA   LAKESH 1300   42      60/ 20/ 24 1012.5
$$

TC  - TEMPERATURE IN CELSIUS
VSB - VISIBILITY IN STATUTE MILES
WCI - WIND CHILL INDEX
HX  - HEAT INDEX





USA.gov is the U.S. government's official web portal to all federal, state and local government web resources and services.